Regional Weather Roundup
Issued by NWS State College, PA

Home | Current Version | Previous Version | Text Only | Print | Product List | Glossary Off
Versions: 1 2 3 4 5 6 7 8 9 10 11 12 13 14 15 16 17 18 19 20 21 22 23 24 25 26 27 28 29 30 31 32 33 34 35 36 37 38 39 40 41 42 43 44 45 46 47 48 49 50

000
ASUS41 KCTP 271903
RWRCTP

REGIONAL WEATHER ROUNDUP
NATIONAL WEATHER SERVICE STATE COLLEGE PA
300 PM EDT WED AUG 27 2014

Note: "fair" indicates few or no clouds below 12,000 feet with no
significant weather and/or obstructions to visibility.

* = STATION THAT DOES NOT REPORT PRECIPITATION /E.G. RAIN...SNOW...ETC/
    THUNDER OR FOG.

PAZ002>004-007>009-013>016-020>023-029>032-272000-
WESTERN PENNSYLVANIA

CITY           SKY/WX    TMP DP  RH WIND       PRES   REMARKS
ERIE           PTSUNNY   74  59  59 NW9       30.07F
MEADVILLE      PTSUNNY   77  64  64 N9        30.07F
FRANKLIN*      PTSUNNY   79  66  65 W7        30.06F
NEW CASTLE     MOCLDY    83  69  62 W8        30.04F
BEAVER COUNTY  CLOUDY    81  70  69 NW6       30.05F
BUTLER*        PTSUNNY   82  70  65 N5        30.06F
PITTSBURGH INT PTSUNNY   84  68  58 W7        30.03F
PITTSBURGH     PTSUNNY   83  69  62 CALM      30.03F
INDIANA*       PTSUNNY   84  70  61 W10       30.06F
LATROBE        PTSUNNY   82  73  74 W9        30.04F
WASHINGTON CO* MOSUNNY   84  72  65 W7        30.05F
$$

PAZ004>006-010>012-017>019-024>028-033>037-041-042-045-046-049>053-272000-
CENTRAL PENNSYLVANIA

CITY           SKY/WX    TMP DP  RH WIND       PRES   REMARKS
BRADFORD       MOSUNNY   79  63  57 W12       30.06F
DUBOIS         PTSUNNY   80  68  66 W8        30.04F
CLEARFIELD     SUNNY     85  67  54 W8        30.02F
JOHNSTOWN      MOSUNNY   81  67  62 W12       30.08F
ALTOONA        MOSUNNY   84  68  58 W8        30.03F
STATE COLLEGE  PTSUNNY   84  70  61 W8        30.00F
WILLIAMSPORT   MOSUNNY   87  67  51 VRB7      29.93F
SELINSGROVE    SUNNY     86  72  62 SE6       29.95F
FT INDIANTOWN  SUNNY     87  71  58 VRB6      29.96F
CAPITAL CITY   MOSUNNY   86  69  56 SW7       29.95F
HARRISBURG     MOSUNNY   87  71  58 CALM      29.95F
YORK           SUNNY     85  68  56 W7        29.97F
$$

PAZ038>040-043-044-047-048-054-055-060>062-067>071-272000-
EASTERN PENNSYLVANIA

CITY           SKY/WX    TMP DP  RH WIND       PRES   REMARKS
SCRANTON       SUNNY     87  65  47 W6        29.96F
MOUNT POCONO   MOSUNNY   83  64  52 SW8       30.01F
ALLENTOWN      SUNNY     88  67  49 SW8       29.94F
QUAKERTOWN*    CLEAR     88  68  51 MISG      29.96F
READING        SUNNY     88  67  49 VRB6      29.94F
LANCASTER      SUNNY     86  65  49 W7        29.96F
COATESVILLE    PTCLDY    84  66  54 SW3       29.98F
POTTSTOWN      SUNNY     85  65  51 VRB3      29.96F
BLUE BELL      SUNNY     88  68  51 W5        29.95F
DOYLESTOWN     MOSUNNY   86  65  49 CALM      29.94F
WILLOW GROVE   NOT AVBL
NORTH PHILA    SUNNY     90  60  36 VRB3      29.95F
PHILADELPHIA   MOSUNNY   88  64  44 W12       29.95F
$$


USA.gov is the U.S. government's official web portal to all federal, state and local government web resources and services.